DM7LA-WX Weather Reports


Display with metric or nautical units.
time (UTC)temp
F
wind
direction
speed
MPH
gust
MPH
rain 1hr
in
rain 24hr
in
rain mn
in
humidity
%
barometer
mb
20260906075801 61 247 0.0 0.0 0.00 2.77 0.00 74 1021.5
20260906065801 58 292 0.0 0.0 0.00 2.77 0.00 76 1020.9
20260906055802 60 315 0.0 0.0 0.00 2.77 0.00 69 1020.9
20260906045802 60 292 0.0 0.0 0.00 2.77 0.00 67 1020.8
20260906035802 60 315 0.0 0.0 0.00 2.78 0.00 67 1020.2
20260906025802 60 315 0.0 0.0 0.00 2.78 0.00 67 1020.4
20260906015802 60 292 0.0 0.0 0.00 2.79 0.00 65 1020.3
20260906005801 60 315 0.0 0.0 0.00 2.79 0.00 65 1019.8
20260905235802 61 315 0.0 0.0 0.00 2.79 0.15 66 1019.5
20260905225801 61 315 0.0 0.0 0.00 2.79 0.15 67 1018.9
20260905215801 61 292 0.0 0.0 0.00 2.79 0.15 63 1018.9
20260905205801 61 337 0.0 0.0 0.00 2.79 0.15 69 1018.4
20260905195801 61 270 0.0 0.0 0.00 2.79 0.15 64 1017.8
20260905185802 61 292 0.0 0.0 0.00 2.79 0.15 72 1016.9
20260905175801 62 315 0.0 0.0 0.00 2.79 0.15 71 1016.6
20260905165802 62 270 0.0 0.0 0.00 2.79 0.15 68 1015.6
20260905155802 64 292 0.0 0.0 0.00 2.79 0.15 69 1015.2
20260905145802 64 315 0.0 0.0 0.00 2.79 0.15 67 1014.2
20260905135801 65 315 0.0 0.0 0.00 2.79 0.15 69 1013.8
20260905125801 64 315 0.0 0.0 0.00 2.79 0.15 70 1013.1
20260905115801 64 292 0.0 0.0 0.00 2.79 0.15 69 1011.8
20260905105801 64 292 0.0 0.0 0.00 2.79 0.15 71 1011.0
20260905095801 62 292 0.0 0.0 0.00 2.81 0.15 72 1010.3
20260905085801 60 315 0.0 0.0 0.03 2.82 0.15 85 1009.5